< < Back
Terminal Aerodrome Forecast


Current Version              Previous Versions:   1  2  3  4  5  6  7  8  9  

Terminal Aerodrome Forecast

688
FTUS42 KTAE 042300
TAFABY
TAF
KABY 042339Z 0500/0524 20007KT P6SM SCT035 OVC070
     FM050300 21005KT 6SM BR BKN020
     FM050700 21004KT 1SM BR OVC003
     FM051600 26009KT 4SM -RA BR OVC008
     FM052000 33011KT P6SM -RA OVC012=



Latest METAR

239
SAUS70 KWBC 060200 RRB
MTRABY
METAR KABY 060153Z 31009KT 10SM OVC016 09/06 A3026 RMK AO2 SLP245
T00890061


USA.gov is the U.S. government's official web portal to all federal, state and local government web resources and services.